When you browse on this site, cookies collect data to enhance your experience and personalize the content and advertising you see.
Visit our Privacy Policy to learn more. By continuing to use the site, you agree to this use of cookies and data.
  • In United Kingdom
  • List of Countries
  • For 7 days
  • Water Temperature
  • Weather Map
  • Weather Widgets
  • user-avatar
    Login

    Hourly Weather Preston

    Today, 12 November, Tuesday

    Time Temperature Precipitation Wind Pressure Humidity
    00:00 +5°C° 0 mm 9 mps 744 mmHg 77%
    01:00 +5°C° 0.1 mm 10 mps 743 mmHg 76%
    02:00 +5°C° 0.1 mm 10 mps 743 mmHg 75%
    03:00 +5°C° 0.1 mm 10 mps 743 mmHg 74%
    04:00 +4°C° 0.5 mm 11 mps 742 mmHg 77%
    05:00 +4°C° 0.5 mm 12 mps 742 mmHg 79%
    06:00 +4°C° 0 mm 13 mps 741 mmHg 83%
    07:00 +4°C° 0.9 mm 11 mps 741 mmHg 82%
    08:00 +5°C° 0.9 mm 9 mps 741 mmHg 82%
    09:00 +5°C° 0.9 mm 7 mps 741 mmHg 81%
    10:00 +5°C° 0 mm 7 mps 741 mmHg 80%
    11:00 +6°C° 0 mm 8 mps 741 mmHg 79%
    12:00 +6°C° 0 mm 9 mps 742 mmHg 78%
    13:00 +6°C° 0 mm 8 mps 742 mmHg 78%
    14:00 +6°C° 0 mm 8 mps 743 mmHg 78%
    15:00 +6°C° 0 mm 8 mps 743 mmHg 78%
    16:00 +6°C° 0 mm 7 mps 744 mmHg 79%
    17:00 +6°C° 0 mm 7 mps 745 mmHg 79%
    18:00 +5°C° 0 mm 6 mps 746 mmHg 79%
    19:00 +6°C° 0 mm 5 mps 746 mmHg 81%
    20:00 +5°C° 0 mm 4 mps 747 mmHg 83%
    21:00 +5°C° 0 mm 4 mps 747 mmHg 85%
    22:00 +4°C° 0 mm 3 mps 747 mmHg 85%
    23:00 +4°C° 0 mm 3 mps 747 mmHg 86%

    Tomorrow, 13 November, Wednesday

    Time Temperature Precipitation Wind Pressure Humidity
    00:00 +5°C° 0 mm 2 mps 748 mmHg 87%
    01:00 +4°C° 0 mm 2 mps 747 mmHg 87%
    02:00 +4°C° 0 mm 2 mps 747 mmHg 87%
    03:00 +5°C° 0 mm 1 mps 747 mmHg 87%
    04:00 +4°C° 0.2 mm 2 mps 747 mmHg 88%
    05:00 +4°C° 0.2 mm 2 mps 747 mmHg 90%
    06:00 +4°C° 0.2 mm 2 mps 747 mmHg 91%
    07:00 +4°C° 0.4 mm 2 mps 746 mmHg 90%
    08:00 +5°C° 0.4 mm 2 mps 746 mmHg 90%
    09:00 +5°C° 0.4 mm 2 mps 746 mmHg 90%
    10:00 +5°C° 0.2 mm 3 mps 745 mmHg 86%
    11:00 +5°C° 0.2 mm 3 mps 745 mmHg 81%
    12:00 +7°C° 0.2 mm 3 mps 744 mmHg 77%
    13:00 +7°C° 0.1 mm 3 mps 743 mmHg 78%
    14:00 +5°C° 0.1 mm 3 mps 743 mmHg 79%
    15:00 +5°C° 0.1 mm 3 mps 742 mmHg 80%
    16:00 +4°C° 0 mm 3 mps 742 mmHg 82%
    17:00 +4°C° 0 mm 4 mps 741 mmHg 85%
    18:00 +3°C° 0 mm 4 mps 741 mmHg 87%
    19:00 +2°C° 0 mm 5 mps 741 mmHg 87%
    20:00 +2°C° 0 mm 5 mps 741 mmHg 87%
    21:00 +1°C° 0 mm 5 mps 741 mmHg 88%
    22:00 +1°C° 0 mm 5 mps 742 mmHg 88%
    23:00 +1°C° 0 mm 5 mps 743 mmHg 88%

    Day after tomorrow, 14 November, Thursday

    Time Temperature Precipitation Wind Pressure Humidity
    00:00 +1°C° 0 mm 5 mps 743 mmHg 89%
    01:00 +1°C° 0 mm 6 mps 744 mmHg 89%
    02:00 +1°C° 0 mm 6 mps 744 mmHg 90%
    03:00 +2°C° 0 mm 6 mps 744 mmHg 90%
    04:00 +1°C° 0 mm 6 mps 745 mmHg 88%
    05:00 +1°C° 0 mm 6 mps 745 mmHg 86%
    06:00 +1°C° 0 mm 5 mps 746 mmHg 83%
    07:00 +1°C° 0 mm 5 mps 746 mmHg 84%
    08:00 +1°C° 0 mm 6 mps 747 mmHg 85%
    09:00 +1°C° 0 mm 6 mps 747 mmHg 86%
    10:00 +2°C° 0 mm 6 mps 748 mmHg 83%
    11:00 +4°C° 0 mm 6 mps 748 mmHg 81%
    12:00 +5°C° 0 mm 7 mps 748 mmHg 78%
    13:00 +5°C° 0 mm 7 mps 748 mmHg 78%
    14:00 +5°C° 0 mm 7 mps 749 mmHg 78%
    15:00 +5°C° 0 mm 7 mps 749 mmHg 78%
    16:00 +4°C° 0.1 mm 7 mps 749 mmHg 80%
    17:00 +4°C° 0.1 mm 7 mps 750 mmHg 82%
    18:00 +3°C° 0.1 mm 7 mps 751 mmHg 84%
    19:00 +3°C° 0.7 mm 7 mps 751 mmHg 85%
    20:00 +3°C° 0.7 mm 7 mps 752 mmHg 87%
    21:00 +3°C° 0.7 mm 7 mps 752 mmHg 88%
    22:00 +3°C° 0.7 mm 7 mps 752 mmHg 88%
    23:00 +2°C° 0.7 mm 8 mps 753 mmHg 88%

    15 November, Friday

    Time Temperature Precipitation Wind Pressure Humidity
    00:00 +2°C° 0.7 mm 9 mps 753 mmHg 87%
    01:00 +2°C° 0.1 mm 8 mps 754 mmHg 87%
    02:00 +2°C° 0.1 mm 8 mps 754 mmHg 87%
    03:00 +3°C° 0.1 mm 7 mps 755 mmHg 87%
    04:00 +3°C° 0 mm 7 mps 755 mmHg 87%
    05:00 +3°C° 0 mm 7 mps 755 mmHg 87%
    06:00 +4°C° 0 mm 7 mps 756 mmHg 87%
    07:00 +4°C° 0 mm 6 mps 756 mmHg 86%
    08:00 +4°C° 0 mm 6 mps 757 mmHg 86%
    09:00 +4°C° 0 mm 6 mps 757 mmHg 85%
    10:00 +4°C° 0 mm 6 mps 757 mmHg 84%
    11:00 +5°C° 0 mm 7 mps 757 mmHg 82%
    12:00 +5°C° 0 mm 7 mps 757 mmHg 81%
    13:00 +5°C° 0 mm 6 mps 757 mmHg 82%
    14:00 +5°C° 0 mm 6 mps 756 mmHg 83%
    15:00 +5°C° 0 mm 6 mps 756 mmHg 85%
    16:00 +6°C° 0 mm 5 mps 756 mmHg 85%
    17:00 +5°C° 0 mm 5 mps 756 mmHg 86%
    18:00 +5°C° 0 mm 5 mps 756 mmHg 86%
    19:00 +5°C° 0 mm 5 mps 756 mmHg 87%
    20:00 +5°C° 0 mm 5 mps 756 mmHg 87%
    21:00 +3°C° 0 mm 5 mps 755 mmHg 88%
    22:00 +3°C° 0 mm 5 mps 755 mmHg 87%
    23:00 +3°C° 0 mm 5 mps 755 mmHg 86%

    16 November, Saturday

    Time Temperature Precipitation Wind Pressure Humidity
    00:00 +3°C° 0 mm 5 mps 754 mmHg 86%
    01:00 +3°C° 0 mm 5 mps 754 mmHg 86%
    02:00 +3°C° 0 mm 6 mps 753 mmHg 86%
    03:00 +3°C° 0 mm 6 mps 753 mmHg 86%
    04:00 +3°C° 0 mm 5 mps 753 mmHg 86%
    05:00 +3°C° 0 mm 5 mps 752 mmHg 86%
    06:00 +3°C° 0 mm 5 mps 752 mmHg 86%
    07:00 +5°C° 0 mm 5 mps 752 mmHg 86%
    08:00 +5°C° 0 mm 4 mps 752 mmHg 86%
    09:00 +5°C° 0 mm 4 mps 752 mmHg 86%
    10:00 +6°C° 0 mm 4 mps 752 mmHg 86%
    11:00 +6°C° 0 mm 4 mps 751 mmHg 85%
    12:00 +6°C° 0 mm 4 mps 751 mmHg 84%
    13:00 +7°C° 0 mm 4 mps 751 mmHg 84%
    14:00 +8°C° 0 mm 3 mps 751 mmHg 84%
    15:00 +8°C° 0 mm 3 mps 750 mmHg 85%
    16:00 +7°C° 0 mm 3 mps 751 mmHg 86%
    17:00 +5°C° 0 mm 3 mps 751 mmHg 88%
    18:00 +6°C° 0 mm 2 mps 751 mmHg 90%
    19:00 +6°C° 0 mm 2 mps 751 mmHg 89%
    20:00 +6°C° 0 mm 2 mps 751 mmHg 89%
    21:00 +6°C° 0 mm 2 mps 751 mmHg 89%
    22:00 +6°C° 0.1 mm 2 mps 752 mmHg 89%
    23:00 +6°C° 0.1 mm 2 mps 752 mmHg 90%

    17 November, Sunday

    Time Temperature Precipitation Wind Pressure Humidity
    00:00 +5°C° 0.1 mm 3 mps 752 mmHg 91%
    01:00 +5°C° 0.3 mm 3 mps 752 mmHg 91%
    02:00 +5°C° 0.3 mm 3 mps 752 mmHg 91%
    03:00 +5°C° 0.3 mm 3 mps 752 mmHg 92%
    04:00 +5°C° 0.4 mm 3 mps 752 mmHg 91%
    05:00 +5°C° 0.4 mm 3 mps 752 mmHg 91%
    06:00 +5°C° 0.4 mm 3 mps 753 mmHg 90%
    07:00 +5°C° 0.1 mm 3 mps 753 mmHg 89%
    08:00 +5°C° 0.1 mm 3 mps 753 mmHg 88%
    09:00 +5°C° 0.1 mm 3 mps 754 mmHg 87%
    10:00 +7°C° 0 mm 3 mps 754 mmHg 84%
    11:00 +7°C° 0 mm 3 mps 754 mmHg 82%
    12:00 +8°C° 0 mm 3 mps 754 mmHg 79%
    13:00 +8°C° 0 mm 3 mps 754 mmHg 80%
    14:00 +7°C° 0 mm 3 mps 754 mmHg 80%
    15:00 +7°C° 0 mm 3 mps 754 mmHg 81%
    16:00 +7°C° 0 mm 3 mps 754 mmHg 83%
    17:00 +6°C° 0 mm 2 mps 754 mmHg 84%
    18:00 +6°C° 0 mm 2 mps 755 mmHg 85%
    19:00 +6°C° 0 mm 2 mps 755 mmHg 86%
    20:00 +6°C° 0 mm 2 mps 755 mmHg 86%
    21:00 +6°C° 0 mm 2 mps 755 mmHg 87%
    22:00 +6°C° 0 mm 1 mps 755 mmHg 88%
    23:00 +6°C° 0 mm 1 mps 755 mmHg 89%
    Show more